Weather History for Billings, MT

Change the Weather History Date:

Friday, October 12, 2012

  Actual Average Record
Temperature  
Mean Temperature 54 °F 50 °F  
Max Temperature 76 °F 61 °F 82 °F (1950)
Min Temperature 32 °F 38 °F 13 °F (2009)
Degree Days  
Heating Degree Days 11 15  
Month to date heating degree days 214 162  
Since 1 July heating degree days 279 391  
Cooling Degree Days 0 0  
Month to date cooling degree days 3 0  
Year to date cooling degree days 958 633  
Growing Degree Days 4 (Base 50)    
Moisture  
Dew Point 35 °F    
Average Humidity 61    
Maximum Humidity 100    
Minimum Humidity 21    
Precipitation  
Precipitation 0.00 in 0.04 in 0.52 in (1970)
Month to date precipitation 0.73 0.53  
Year to date precipitation 5.81 11.88  
Snow  
Snow 0.00 in 0.10 in 3.50 in (2008)
Month to date snowfall 3.4 1.4  
Since 1 July snowfall 3.4 2.5  
Since 1 September snowfall 3.4 2.5  
Snow Depth 0.00 in    
Sea Level Pressure  
Sea Level Pressure 29.86 in    
Wind  
Wind Speed 9 mph (SW)    
Max Wind Speed 25 mph    
Max Gust Speed 31 mph    
Visibility 5 miles    
Events Fog    
T = Trace of Precipitation, MM = Missing Value Source: NWS Daily Summary

Daily Weather History Graph

Daily Weather History Graph

Search for Another Location

Airport:

Trip Planner

Search our weather history database for the weather conditions in past years. The results will help you decide how hot, cold, wet, or windy it might be!

Date:

Astronomy

Oct. 12, 2012 Rise Set
Actual Time 7:27 AM MDT 6:32 PM MDT
Civil Twilight 6:57 AM MDT 7:02 PM MDT
Nautical Twilight 6:23 AM MDT 7:36 PM MDT
Astronomical Twilight 5:48 AM MDT 8:11 PM MDT
Moon 4:05 AM MDT (10/12) 4:50 PM MDT (10/12)
Length of Visible Light 12h 04m
Length of Day
11h 05m
Waning Crescent, 10% of the Moon is Illuminated
Oct 12
Waning Crescent
Oct 15
New
Oct 21
First Quarter
Oct 29
Full
Nov 6
Last Quarter

Hourly Weather History & Observations

Time (MDT) Temp. Windchill Dew Point Humidity Pressure Visibility Wind Dir Wind Speed Gust Speed Precip Events Conditions
12:44 AM 33.8 °F 28.6 °F 33.8 °F 100% 30.02 in 0.5 mi SW 5.8 mph - N/A Fog Fog
12:53 AM 34.0 °F 28.0 °F 33.1 °F 96% 30.09 in 1.0 mi WSW 6.9 mph - N/A   Mostly Cloudy
1:04 AM 35.6 °F 30.7 °F 33.8 °F 93% 30.01 in 3.0 mi SW 5.8 mph - N/A   Overcast
1:28 AM 35.6 °F 32.8 °F 33.8 °F 93% 30.00 in 4.0 mi SW 3.5 mph - N/A   Overcast
1:53 AM 35.6 °F 30.7 °F 33.8 °F 93% 29.99 in 4.0 mi WSW 5.8 mph - N/A   Overcast
2:51 AM 33.8 °F 30.8 °F 33.8 °F 100% 29.97 in 0.5 mi SSW 3.5 mph - N/A Fog Fog
2:53 AM 34.0 °F - 33.1 °F 96% 30.03 in 0.5 mi Calm Calm - N/A Fog Fog
3:05 AM 33.8 °F 29.6 °F 33.8 °F 100% 29.96 in 0.5 mi WSW 4.6 mph - N/A Fog Fog
3:23 AM 35.6 °F 31.7 °F 33.8 °F 93% 29.95 in 1.5 mi WSW 4.6 mph - N/A   Overcast
3:53 AM 34.0 °F - 34.0 °F 100% 30.00 in 2.0 mi Calm Calm - N/A   Overcast
4:53 AM 34.0 °F - 34.0 °F 100% 29.99 in 1.0 mi Calm Calm - N/A   Overcast
5:03 AM 33.8 °F - 33.8 °F 100% 29.92 in 0.5 mi Calm Calm - N/A Fog Fog
5:19 AM 33.8 °F - 33.8 °F 100% 29.91 in 0.2 mi Calm Calm - N/A Fog Fog
5:30 AM 33.8 °F 30.8 °F 33.8 °F 100% 29.91 in 0.2 mi SW 3.5 mph - N/A Fog Fog
5:53 AM 33.1 °F - 33.1 °F 100% 29.96 in 0.2 mi Calm Calm - N/A Fog Fog
6:53 AM 33.1 °F 26.9 °F 32.0 °F 96% 29.95 in 0.1 mi SSW 6.9 mph - N/A Fog Fog
7:53 AM 33.1 °F 30.0 °F 32.0 °F 96% 29.94 in 0.1 mi South 3.5 mph - N/A Fog Fog
8:53 AM 33.1 °F 24.9 °F 33.1 °F 100% 29.93 in 0.1 mi SSW 10.4 mph - N/A Fog Fog
9:19 AM 33.8 °F 25.8 °F 33.8 °F 100% 29.85 in 0.2 mi SSW 10.4 mph - N/A Fog Fog
9:33 AM 35.6 °F 28.6 °F 35.6 °F 100% 29.85 in 0.2 mi SSW 9.2 mph - N/A Fog Fog
9:40 AM 35.6 °F 29.2 °F 35.6 °F 100% 29.85 in 1.0 mi SSW 8.1 mph - N/A   Scattered Clouds
9:43 AM 35.6 °F 28.6 °F 35.6 °F 100% 29.85 in 9.0 mi SSW 9.2 mph - N/A Fog Scattered Clouds
9:53 AM 37.9 °F 30.9 °F 37.0 °F 97% 29.91 in 10.0 mi SW 10.4 mph 18.4 mph N/A Fog Partly Cloudy
10:53 AM 53.6 °F - 37.4 °F 54% 29.84 in 10.0 mi SW 15.0 mph - N/A   Clear
11:53 AM 63.0 °F - 37.9 °F 40% 29.81 in 10.0 mi SW 16.1 mph 23.0 mph N/A   Clear
12:53 PM 68.0 °F - 37.9 °F 33% 29.77 in 10.0 mi SW 15.0 mph - N/A   Clear
1:53 PM 72.0 °F - 37.9 °F 29% 29.74 in 10.0 mi WSW 16.1 mph - N/A   Clear
2:53 PM 73.9 °F - 36.0 °F 25% 29.71 in 10.0 mi SW 12.7 mph - N/A   Clear
3:53 PM 75.0 °F - 35.1 °F 23% 29.69 in 10.0 mi WSW 11.5 mph - N/A   Clear
4:53 PM 75.0 °F - 33.1 °F 22% 29.68 in 10.0 mi SW 6.9 mph - N/A   Clear
5:53 PM 73.0 °F - 35.1 °F 25% 29.67 in 10.0 mi SW 6.9 mph - N/A   Clear
6:53 PM 69.1 °F - 35.1 °F 29% 29.69 in 10.0 mi SW 11.5 mph - N/A   Partly Cloudy
7:53 PM 66.0 °F - 36.0 °F 33% 29.71 in 10.0 mi WSW 10.4 mph - N/A   Clear
8:53 PM 66.0 °F - 36.0 °F 33% 29.73 in 10.0 mi WSW 10.4 mph - N/A   Clear
9:53 PM 59.0 °F - 37.0 °F 44% 29.74 in 10.0 mi South 8.1 mph - N/A   Partly Cloudy
10:53 PM 61.0 °F - 36.0 °F 39% 29.73 in 10.0 mi WSW 6.9 mph - N/A   Partly Cloudy
11:53 PM 55.9 °F - 36.0 °F 47% 29.72 in 10.0 mi WSW 10.4 mph - N/A   Clear